Location: ?????
(38.3715°N, 23.0573°E)
Time: 07:35:26
(UTC+00:00)

NOSS 3-2 (A) - Pass Details

Date: 03 August 2024
Orbit: 703 x 1502 km, 63.4° (Epoch: 12 August)

Event Time Altitude Azimuth Distance (km) Brightness Sun altitude
Rises 20:08:08 0° 327° (NNW) 3,993 8.1 -24.8°
Reaches altitude 10° 20:10:41 10° 329° (NNW) 3,135 7.2 -25.1°
Maximum altitude 20:18:27 80° 57° (ENE) 1,375 4.1 -26.0°
Enters shadow 20:21:14 49° 135° (SE) 1,751 4.3 -26.3°
